Погода в Светлом

Россия / Челябинская область     53°41′36″N   60°22′11″E
темп.,
°C
ветер,
м/с
пор.,
м/с
влажн.,
%
обл.,
%
осадки,
мм/ч
давл.,
гПа
погр.,
м
18 октября, пн
пн1823:00+8юз365695 0.0 102181
02:00+8юз3557100 0.0 102172
05:00+8юз4957100 0.0 1020171
08:00+8ююз41055100 0.0 1019184
11:00+11ююз61243100 0.0 1018478
14:00+13ююз61235100 0.0 1017777
17:00+12ююз61138100 0.0 1016522
20:00+10ююз51342100 0.0 1017363
19 октября, вт
вт1923:00+9ююз51244100 0.0 1016261
02:00+8ююз51344100 0.0 1015291
05:00+8ююз51241100 0.0 1014254
08:00+7ююз41142100 0.0 1013226
11:00+11юз61033100 0.0 1012450
14:00+12юз51233100 0.0 10111241
17:00+11юз5105894 0.0 10101037
20:00+8юз336394 0.0 101043
20 октября, ср
ср2023:00+9ю2258100 0.0 101035
02:00+8юв224689 0.0 100932
05:00+8всв1142100 0.0 100810
08:00+7в2243100 0.0 100722
11:00+10вюв2337100 0.0 1006267
14:00+10вюв2237100 0.0 1005530
17:00+9вюв2245100 0.1 100472
20:00+5св4687100 2.3 1003306
21 октября, чт
чт2123:00+5св5988100 3.9 1001500
02:00+4св61094100 1.9 999532
05:00+4ссв71096100 5.5 998653
08:00+2с71196100 1.8 999504
11:00+1с81496100 3.6 1001619
14:00+1с81398100 4.3 1003575
17:000с81598100 6.8 1005621
20:000с71298100 1.3 1008702
22 октября, пт
пт2223:000ссз61198100 1.5 1009544
02:000ссз389494 0.3 1010345
05:00−2з3489100 0.3 101169
08:00−2юз3691100 0.0 1011130
11:00+1юз5982100 0.0 1010327
14:00+1юз71394100 0.5 1007423
17:00+1юз81597100 6.1 1006397
20:00+3юз81699100 0.0 1006544